CZ-6A DEB, 61821

Orbit data source: Space-Track

CZ-6A DEB, 61821 is space debris in LEO originally from a launch on Tue, 06 Aug 2024 UTC launched from the Taiyaun Space Center, China (TSC). Debris objects in space refer to the collection of defunct objects orbiting the Earth. Examples of debris include non-operational satellites, rocket bodies, and fragments generated from explosions, collisions, or faulty payload assembly.

Loading next visibility...
Identifier
61821, 2024-140ACM
Orbit
LEO
Country
Flag of CNCN / PRC
Related business
Manufacturer
SAST
Mission
Spacecraft
Bus & Motor
Unknown
Mass
Unknown
Launch date (UTC)
2024-08-06 (2 years ago)
Launch vehicle
Unknown
Launch site
Taiyaun Space Center, China (TSC)
Object type
Payload
Rocket body
Debris
Shape & HBR
Unknown shape, 0.1 m
Radar Cross Section
Medium (>0.1 m² and <1 m²)

Expand to show TLE details & history
Last TLE update: 15 hours ago

TLE from 15 hours ago
0 CZ-6A DEB
1 61821U 24140ACM 26171.24027675  .00012836  00000-0  12657-2 0  9992
2 61821  89.0507 271.4067 0120258 146.0751 214.8244 14.86584649 94629
Epoch: 2026-06-20T05:45Z
TLE epoch observation values (Epoch: 2026-06-20T05:45:59.911Z)
Latitude
0.00003°
Longitude
-83.55067°
Altitude
681.08 km
Speed
7.479 km/s
True Right ascension
18h 05m 37s
True Declination
0° 00' 00"
Sunlit
Object was in full shadow at epoch
Visualization orbit readout
Latitude
Unknown
Longitude
Unknown
Altitude
Unknown
Speed
Unknown
Apparent Right ascension
Unknown
Apparent Declination
Unknown
Sunlit
N/A
Visualization observer readout
Local Sidereal Time
07:23:58
Azimuth
Unknown
Elevation
Unknown
Doppler factor
Unknown
Orbital elements
Apogee altitude
689.455 km
Perigee altitude
521.488 km
Semi-major axis
6,983.609 km
Eccentricity
0.01203
Inclination
89.0507°
RAAN
271.4067°
Arg. of periapsis
146.0751°
True anomaly
214.04706°
Mean anomaly
214.8244°
Eccentric anomaly
214.43478°
Mean motion
3.71898 °/min
Orbital period
96.8 mins
BSTAR
0.0012657
Loading maneuver chart data...
Computing Atmospheric mass density...
Loading historical data...
Loading historical data...
Loading historical data...
Loading historical data...
Loading historical data...
Loading historical data...
Loading historical data...

Documentation

Showing up to 5 results
|